EW9807 Weather Reports


Display with metric or nautical units.
time (UTC)temp
F
wind
direction
speed
MPH
gust
MPH
rain 1hr
in
rain 24hr
in
rain mn
in
humidity
%
barometer
mb
20260507231049 69 114 0.0 1.0 0.00 0.71 0.50 83 1012.7
20260507230559 69 114 0.0 3.0 0.00 0.71 0.50 83 1012.7
20260507230048 69 114 1.0 3.0 0.00 0.71 0.50 83 1012.6
20260507225556 69 209 0.0 2.0 0.00 0.71 0.50 83 1012.6
20260507225046 69 183 0.0 1.0 0.00 0.71 0.50 83 1012.7
20260507224557 69 183 0.0 6.0 0.00 0.71 0.50 82 1012.7
20260507224047 69 187 1.0 6.0 0.00 0.71 0.50 82 1012.6
20260507223106 70 280 1.0 2.0 0.00 0.71 0.50 82 1012.4
20260507222551 70 279 0.0 3.0 0.00 0.71 0.50 82 1012.4
20260507222058 70 279 1.0 3.0 0.00 0.71 0.50 82 1012.4
20260507221549 70 271 1.0 2.0 0.00 0.71 0.50 82 1012.3
20260507220550 70 171 1.0 4.0 0.00 0.71 0.50 82 1012.3
20260507220052 70 237 0.0 2.0 0.00 0.71 0.50 81 1012.3
20260507215556 70 237 1.0 2.0 0.00 0.71 0.50 84 1012.2
20260507215107 70 237 1.0 2.0 0.00 0.71 0.50 83 1012.2
20260507214552 70 237 0.0 4.0 0.00 0.71 0.50 82 1012.1
20260507213105 70 127 0.0 4.0 0.00 0.71 0.50 83 1012.2
20260507212608 70 120 1.0 4.0 0.00 0.71 0.50 82 1012.3
20260507212055 69 203 0.0 2.0 0.00 0.71 0.50 83 1012.2
20260507211545 69 132 0.0 4.0 0.00 0.71 0.50 84 1012.2
20260507211056 69 226 1.0 4.0 0.00 0.71 0.50 86 1012.1
20260507210606 69 197 0.0 2.0 0.00 0.71 0.50 86 1012.1
20260507210126 68 192 1.0 3.0 0.00 0.71 0.50 85 1012.1
20260507205607 68 256 0.0 2.0 0.00 0.71 0.50 86 1012.1
20260507205052 69 257 1.0 3.0 0.00 0.71 0.50 85 1012.1
20260507204558 69 257 2.0 4.0 0.00 0.71 0.50 84 1012.2
20260507204046 70 250 1.0 6.0 0.00 0.71 0.50 82 1012.0
20260507203556 70 145 2.0 7.0 0.00 0.71 0.50 82 1012.1
20260507203106 70 155 3.0 7.0 0.00 0.71 0.50 84 1012.2
20260507202549 69 124 1.0 5.0 0.00 0.71 0.50 85 1012.2
20260507201553 69 308 1.0 4.0 0.00 0.71 0.50 86 1012.1
20260507200550 68 258 1.0 2.0 0.00 0.71 0.50 86 1012.3
20260507195606 68 196 1.0 2.0 0.00 0.71 0.50 87 1012.4
20260507194547 68 327 1.0 3.0 0.00 0.71 0.50 87 1012.4
20260507194057 68 327 1.0 3.0 0.00 0.71 0.50 88 1012.4
20260507193602 68 326 1.0 2.0 0.00 0.71 0.50 88 1012.4
20260507193051 68 326 1.0 3.0 0.00 0.71 0.50 89 1012.4
20260507192600 68 345 0.0 2.0 0.00 0.71 0.50 89 1012.4
20260507192047 68 345 1.0 2.0 0.00 0.71 0.50 89 1012.4
20260507191558 68 345 1.0 4.0 0.00 0.71 0.50 88 1012.4
20260507191105 68 326 1.0 4.0 0.00 0.71 0.50 89 1012.2
20260507190553 69 291 1.0 3.0 0.00 0.71 0.50 87 1012.3
20260507185549 69 333 0.0 0.0 0.00 0.71 0.50 89 1012.2
20260507185051 69 57 0.0 0.0 0.01 0.71 0.50 89 1012.1
20260507184602 69 64 0.0 1.0 0.01 0.71 0.50 89 1012.2
20260507184052 68 61 0.0 2.0 0.01 0.71 0.50 89 1012.3
20260507183603 68 124 0.0 2.0 0.01 0.71 0.50 89 1012.2
20260507183052 68 244 0.0 2.0 0.01 0.71 0.50 89 1012.2
20260507182557 69 244 1.0 2.0 0.01 0.71 0.50 89 1012.2
20260507182105 69 244 0.0 2.0 0.01 0.71 0.50 89 1012.2
20260507181103 69 222 0.0 3.0 0.01 0.71 0.50 89 1012.1
20260507180552 69 221 1.0 3.0 0.01 0.71 0.50 89 1012.1
20260507175551 70 167 0.0 4.0 0.01 0.71 0.50 88 1012.2
20260507175100 70 193 1.0 4.0 0.00 0.70 0.49 87 1012.2
20260507174602 70 188 2.0 6.0 0.00 0.70 0.49 88 1012.2
20260507174051 70 151 1.0 6.0 0.00 0.70 0.49 89 1012.1
20260507173558 70 148 0.0 2.0 0.00 0.70 0.49 89 1012.1
20260507173503 69 148 0.0 2.0 0.00 0.70 0.49 90 1010.8
20260507173108 70 148 1.0 2.0 0.00 0.70 0.49 88 1012.1
20260507172551 70 59 0.0 4.0 0.00 0.70 0.49 88 1012.2
20260507172057 70 134 1.0 8.0 0.00 0.70 0.49 87 1012.3
20260507171548 71 167 3.0 8.0 0.00 0.70 0.49 86 1012.2
20260507171055 71 177 2.0 5.0 0.00 0.70 0.49 85 1012.2
20260507170128 71 167 3.0 6.0 0.00 0.70 0.49 91 1012.3
20260507170022 70 158 3.0 6.0 0.00 0.70 0.49 91 1011.0
20260507165551 69 235 0.0 0.0 0.00 0.70 0.49 90 1012.5
20260507165059 69 235 0.0 7.0 0.00 0.70 0.49 89 1012.4
20260507164603 70 239 0.0 7.0 0.00 0.70 0.49 89 1012.3
20260507163602 71 212 1.0 4.0 0.00 0.70 0.49 90 1012.2
20260507163053 69 165 1.0 4.0 0.00 0.70 0.49 92 1012.2
20260507162556 68 269 0.0 2.0 0.00 0.70 0.49 91 1012.3
20260507162102 69 163 0.0 3.0 0.00 0.70 0.49 91 1012.3
20260507161553 69 164 0.0 2.0 0.00 0.70 0.49 91 1012.4
20260507161102 69 134 1.0 2.0 0.00 0.70 0.49 92 1012.4
20260507160551 69 134 1.0 2.0 0.00 0.70 0.49 93 1012.5
20260507155548 68 168 0.0 1.0 0.00 0.70 0.49 94 1012.5
20260507155055 68 168 0.0 5.0 0.00 0.70 0.49 94 1012.4
20260507154600 68 168 2.0 5.0 0.00 0.70 0.49 95 1012.4
20260507154049 67 173 0.0 0.0 0.00 0.70 0.49 94 1012.3
20260507153601 68 173 0.0 0.0 0.01 0.70 0.49 95 1012.3
20260507153050 68 172 0.0 0.0 0.02 0.70 0.49 96 1012.1
20260507152558 67 172 0.0 0.0 0.02 0.70 0.49 96 1011.8
20260507152048 66 172 0.0 3.0 0.02 0.70 0.49 96 1011.8
20260507151600 66 172 0.0 3.0 0.02 0.70 0.49 97 1011.8
20260507150105 65 359 0.0 0.0 0.02 0.70 0.49 97 1011.9
20260507145552 65 359 0.0 0.0 0.02 0.70 0.49 97 1011.8
20260507145101 65 359 0.0 0.0 0.02 0.70 0.49 97 1011.8
20260507144552 65 359 0.0 0.0 0.03 0.70 0.49 97 1011.8
20260507144059 65 359 0.0 0.0 0.03 0.70 0.49 97 1012.0
20260507143555 65 359 0.0 0.0 0.02 0.69 0.48 97 1011.9
20260507142548 66 359 0.0 0.0 0.01 0.68 0.47 97 1012.3
20260507142055 65 359 0.0 0.0 0.01 0.68 0.47 97 1012.2
20260507141603 65 359 0.0 0.0 0.01 0.68 0.47 97 1011.8
20260507141052 65 359 0.0 1.0 0.01 0.68 0.47 97 1011.4
20260507140601 65 359 1.0 1.0 0.01 0.68 0.47 97 1011.4
20260507135557 65 359 0.0 0.0 0.02 0.68 0.47 97 1011.6
20260507135047 65 359 0.0 0.0 0.02 0.68 0.47 96 1011.8
20260507134556 65 359 0.0 1.0 0.01 0.67 0.46 96 1011.9
20260507134044 65 359 0.0 1.0 0.01 0.67 0.46 96 1011.8
20260507133555 65 359 0.0 1.0 0.01 0.67 0.46 96 1011.5
20260507133102 65 356 0.0 2.0 0.01 0.67 0.46 96 1011.4
20260507132551 65 356 1.0 1.0 0.01 0.67 0.46 97 1011.4
20260507132058 65 356 0.0 1.0 0.01 0.67 0.46 96 1011.3
20260507131546 65 356 1.0 2.0 0.01 0.67 0.46 96 1011.2
20260507130601 66 334 1.0 3.0 0.01 0.67 0.46 96 1011.1
20260507130050 66 337 2.0 3.0 0.01 0.67 0.46 96 1011.1
20260507125600 67 18 1.0 3.0 0.00 0.66 0.45 96 1011.2
20260507124602 68 297 1.0 6.0 0.01 0.66 0.45 97 1010.8
20260507123600 68 210 1.0 5.0 0.01 0.66 0.45 97 1010.4
20260507123109 68 209 2.0 5.0 0.01 0.66 0.45 97 1010.4
20260507122554 68 167 2.0 4.0 0.02 0.66 0.45 97 1010.3
20260507122042 68 187 0.0 5.0 0.04 0.66 0.45 97 1010.1
20260507121556 68 176 1.0 5.0 0.04 0.66 0.45 97 1010.3
20260507121106 68 114 1.0 3.0 0.04 0.66 0.45 97 1010.2
20260507120556 68 198 2.0 8.0 0.04 0.66 0.45 97 1010.1
20260507115055 68 197 3.0 9.0 0.04 0.66 0.45 97 1009.8
20260507114601 68 185 3.0 8.0 0.03 0.65 0.44 97 1009.8
20260507114053 68 198 2.0 6.0 0.03 0.65 0.44 97 1009.7
20260507113602 68 223 2.0 8.0 0.03 0.65 0.44 97 1009.7
20260507113052 68 199 2.0 8.0 0.03 0.65 0.44 96 1040.4
20260507112557 68 176 3.0 5.0 0.02 0.64 0.43 96 1009.5
20260507112106 68 251 2.0 6.0 0.00 0.62 0.41 96 1009.6
20260507111554 68 204 3.0 7.0 0.00 0.62 0.41 96 1009.6
20260507111044 68 184 3.0 7.0 0.00 0.62 0.41 96 1009.5
20260507110555 67 205 1.0 9.0 0.00 0.62 0.41 96 1009.2
20260507110510 67 190 1.0 9.0 0.00 0.62 0.41 96 1007.9
20260507105557 67 223 4.0 8.0 0.00 0.62 0.41 96 1009.2
20260507105107 67 177 2.0 6.0 0.00 0.62 0.41 96 1009.2
20260507104059 67 195 3.0 9.0 0.01 0.62 0.41 96 1009.5
20260507103548 67 209 2.0 5.0 0.01 0.62 0.41 96 1009.5
20260507103058 67 188 1.0 6.0 0.01 0.62 0.41 96 1009.6
20260507102547 67 162 2.0 6.0 0.03 0.62 0.41 96 1009.8
20260507101547 67 196 2.0 4.0 0.05 0.62 0.41 96 1009.7
20260507101053 67 205 1.0 4.0 0.06 0.62 0.41 96 1009.7
20260507100600 67 130 1.0 3.0 0.07 0.62 0.41 96 1009.8
20260507100140 67 195 0.0 3.0 0.07 0.62 0.41 96 1008.6
20260507095602 67 215 1.0 3.0 0.09 0.62 0.41 96 1009.9
20260507095051 67 188 0.0 5.0 0.13 0.62 0.41 96 1009.9
20260507094602 67 188 2.0 5.0 0.14 0.61 0.40 96 1010.1
20260507094047 67 196 2.0 3.0 0.14 0.61 0.40 96 1009.8
20260507093600 67 63 1.0 3.0 0.14 0.61 0.40 96 1009.4
20260507093050 67 74 0.0 5.0 0.14 0.61 0.40 96 1009.6
20260507092045 67 179 1.0 3.0 0.12 0.58 0.37 96 1009.8
20260507091556 67 182 0.0 3.0 0.11 0.57 0.36 96 1010.5
20260507091106 67 182 1.0 3.0 0.10 0.56 0.35 96 1010.4
20260507090552 67 110 1.0 3.0 0.09 0.55 0.34 96 1010.0
20260507090100 67 110 1.0 3.0 0.09 0.55 0.34 96 1009.7
20260507085101 67 162 3.0 5.0 0.03 0.49 0.28 96 1010.7
20260507084546 67 158 1.0 2.0 0.01 0.47 0.26 96 1011.3
20260507084054 67 162 0.0 2.0 0.02 0.47 0.26 96 1010.8
20260507083602 67 162 0.0 3.0 0.02 0.47 0.26 96 1011.0
20260507082559 67 159 1.0 3.0 0.01 0.46 0.25 96 1011.1
20260507082047 67 168 1.0 4.0 0.01 0.46 0.25 96 1011.0
20260507081557 67 162 1.0 5.0 0.01 0.46 0.25 96 1010.9
20260507081046 67 176 2.0 5.0 0.01 0.46 0.25 96 1010.8
20260507080550 67 179 0.0 5.0 0.01 0.46 0.25 96 1010.8
20260507080057 67 176 1.0 4.0 0.01 0.46 0.25 96 1010.9
20260507075602 67 176 2.0 6.0 0.01 0.46 0.25 96 1011.0
20260507075049 67 183 2.0 6.0 0.02 0.46 0.25 96 1011.1
20260507074601 67 162 1.0 5.0 0.02 0.46 0.25 96 1011.0
20260507074050 67 172 0.0 5.0 0.01 0.45 0.24 96 1011.1
20260507073601 67 146 1.0 5.0 0.02 0.45 0.24 96 1011.0
20260507072555 67 156 1.0 4.0 0.02 0.45 0.24 96 1011.3
20260507072102 67 169 1.0 4.0 0.02 0.45 0.24 96 1011.2
20260507071551 67 188 1.0 4.0 0.03 0.45 0.24 95 1011.2
20260507071101 67 217 2.0 4.0 0.03 0.45 0.24 95 1011.1
20260507070547 67 146 1.0 3.0 0.04 0.45 0.24 95 1011.0
20260507070056 67 177 0.0 5.0 0.04 0.45 0.24 95 1011.0
20260507065602 67 184 1.0 3.0 0.04 0.45 0.24 95 1011.0
20260507065051 67 148 0.0 2.0 0.04 0.44 0.23 95 1010.5
20260507064600 67 166 0.0 2.0 0.04 0.44 0.23 95 1010.6
20260507064051 67 166 1.0 4.0 0.05 0.44 0.23 95 1010.4
20260507063601 67 179 1.0 4.0 0.04 0.43 0.22 95 1010.9
20260507063049 67 149 2.0 5.0 0.05 0.43 0.22 95 1010.8
20260507062552 68 146 1.0 5.0 0.05 0.43 0.22 95 1010.9
20260507062102 68 200 2.0 10.0 0.06 0.43 0.22 95 1010.9
20260507061551 68 201 1.0 10.0 0.05 0.42 0.21 95 1010.5
20260507061044 68 185 1.0 6.0 0.09 0.42 0.21 95 1011.6
20260507060554 68 248 2.0 5.0 0.10 0.41 0.20 95 1011.6
20260507060059 68 184 1.0 10.0 0.12 0.41 0.20 95 1011.8
20260507060012 67 227 1.0 10.0 0.12 0.41 0.20 95 1010.6
20260507055055 68 123 2.0 9.0 0.13 0.40 0.19 95 1011.8
20260507054059 68 214 5.0 12.0 0.15 0.39 0.18 95 1011.8
20260507053548 68 155 3.0 10.0 0.15 0.39 0.18 95 1011.8
20260507052057 68 193 4.0 15.0 0.14 0.37 0.16 95 1011.8
20260507051546 68 160 5.0 15.0 0.13 0.36 0.16 95 1012.2
20260507051057 68 173 3.0 12.0 0.11 0.33 0.12 95 1013.0
20260507050546 68 176 7.0 12.0 0.09 0.31 0.10 95 1013.5
20260507050057 68 183 4.0 10.0 0.08 0.29 0.08 95 1013.2
20260507045601 68 198 4.0 10.0 0.07 0.28 0.07 95 1012.8
20260507044057 68 161 2.0 10.0 0.03 0.24 0.03 95 1012.5
20260507042545 69 174 3.0 8.0 0.02 0.23 0.02 94 1012.5
20260507042055 69 197 2.0 8.0 0.02 0.23 0.02 94 1012.5
20260507041545 69 134 2.0 7.0 0.02 0.23 0.02 94 1012.6
20260507040115 69 225 3.0 5.0 0.00 0.21 0.00 94 1012.9
20260507035556 69 176 2.0 6.0 0.00 0.21 0.21 94 1013.2
20260507035103 69 204 2.0 6.0 0.00 0.21 0.21 94 1012.7
20260507034549 69 184 1.0 4.0 0.00 0.21 0.21 94 1012.4
20260507034059 69 194 1.0 4.0 0.00 0.21 0.21 94 1012.4
20260507033548 69 184 0.0 4.0 0.00 0.21 0.21 94 1012.6
20260507033056 69 184 2.0 4.0 0.00 0.21 0.21 94 1012.4
20260507032553 69 160 2.0 6.0 0.01 0.21 0.21 94 1012.5
20260507032103 69 166 2.0 7.0 0.02 0.21 0.21 94 1012.6
20260507031554 69 174 3.0 10.0 0.03 0.21 0.21 94 1012.7
20260507031102 69 181 4.0 10.0 0.03 0.21 0.21 94 1013.0
20260507030555 69 216 3.0 7.0 0.03 0.21 0.21 94 1012.7
20260507030509 69 212 3.0 7.0 0.03 0.21 0.21 94 1011.3
20260507025552 70 262 3.0 11.0 0.04 0.21 0.21 94 1013.7
20260507025101 70 225 3.0 11.0 0.05 0.21 0.21 94 1013.7
20260507024547 70 193 3.0 11.0 0.06 0.21 0.21 94 1013.3
20260507024059 70 153 5.0 11.0 0.06 0.21 0.21 94 1013.3
20260507022552 71 167 2.0 3.0 0.12 0.20 0.20 94 1013.5
20260507022057 70 204 0.0 2.0 0.11 0.19 0.19 94 1013.4
20260507021547 71 204 0.0 0.0 0.10 0.18 0.18 94 1013.0
20260507021058 71 204 0.0 1.0 0.11 0.18 0.18 94 1012.7
20260507020545 71 204 0.0 1.0 0.11 0.18 0.18 94 1012.6
20260507020053 71 204 0.0 0.0 0.12 0.18 0.18 94 1012.5
20260507015600 71 204 0.0 0.0 0.17 0.17 0.17 93 1012.8
20260507015050 71 204 0.0 0.0 0.16 0.16 0.16 93 1012.8
20260507014602 71 204 0.0 0.0 0.15 0.15 0.15 93 1012.8
20260507014051 71 204 0.0 0.0 0.15 0.15 0.15 93 1012.4
20260507013600 71 204 0.0 0.0 0.14 0.14 0.14 92 1012.5
20260507013107 71 205 0.0 0.0 0.09 0.09 0.09 92 1012.9
20260507012550 71 205 0.0 0.0 0.08 0.08 0.08 91 1013.2
20260507012057 72 205 0.0 0.0 0.08 0.08 0.08 90 1012.8
20260507011551 72 205 0.0 0.0 0.08 0.08 0.08 89 1012.8
20260507011102 73 205 0.0 0.0 0.07 0.07 0.07 87 1012.9
20260507010554 74 205 0.0 2.0 0.07 0.07 0.07 85 1013.0
20260507005550 76 186 1.0 3.0 0.00 0.00 0.00 77 1013.1
20260507005056 76 188 1.0 4.0 0.00 0.00 0.00 76 1012.7
20260507004604 76 180 2.0 6.0 0.00 0.00 0.00 76 1012.8
20260507003054 76 157 2.0 7.0 0.00 0.00 0.00 76 1012.8
20260507002557 76 196 2.0 7.0 0.00 0.00 0.00 76 1012.7
20260507002045 77 154 2.0 7.0 0.00 0.00 0.00 75 1012.7
20260507001555 77 195 2.0 7.0 0.00 0.00 0.00 75 1012.7
20260507000559 77 170 4.0 8.0 0.00 0.00 0.00 74 1012.7
20260507000051 77 208 4.0 8.0 0.00 0.00 0.00 74 1012.7
20260506235557 77 243 3.0 5.0 0.00 0.00 0.00 74 1012.8
20260506235044 77 196 3.0 8.0 0.00 0.00 0.00 74 1012.6
20260506234553 77 190 4.0 8.0 0.00 0.00 0.00 74 1012.3
20260506234042 77 193 2.0 6.0 0.00 0.00 0.00 74 1012.1
20260506233555 77 182 2.0 5.0 0.00 0.00 0.00 74 1011.9
20260506232552 77 233 1.0 5.0 0.00 0.00 0.00 73 1012.2